Weather History for KFHU - December, 2012

Change the Weather History Date:

Saturday, December 15, 2012

  Actual Average Record
Temperature  
Mean Temperature 46 °F -  
Max Temperature 50 °F 57 °F 69 °F (1989)
Min Temperature 42 °F 35 °F 19 °F (1987)
Degree Days  
Heating Degree Days 19    
Moisture  
Dew Point 33 °F    
Average Humidity 63    
Maximum Humidity 71    
Minimum Humidity 54    
Precipitation  
Precipitation 0.00 in - - ()
Sea Level Pressure  
Sea Level Pressure 29.99 in    
Wind  
Wind Speed 8 mph (SSW)    
Max Wind Speed 20 mph    
Max Gust Speed 26 mph    
Visibility 10 miles    
Events Rain    
Averages and records for this station are not official NWS values.
T = Trace of Precipitation, MM = Missing Value Source: NWS Daily Summary

Daily Weather History Graph

Daily Weather History Graph

Search for Another Location

Airport or City:

Trip Planner

Search our weather history database for the weather conditions in past years. The results will help you decide how hot, cold, wet, or windy it might be!

Date:

Astronomy

Dec. 15, 2012 Rise Set
Actual Time 7:13 AM MST 5:19 PM MST
Civil Twilight 6:46 AM MST 5:46 PM MST
Nautical Twilight 6:16 AM MST 6:17 PM MST
Astronomical Twilight 5:46 AM MST 6:46 PM MST
Moon 9:15 AM MST (12/15) 8:19 PM MST (12/15)
Length of Visible Light 10h 59m
Length of Day
10h 06m
Waxing Crescent, 9% of the Moon is Illuminated
Dec 15
Waxing Crescent
Dec 19
First Quarter
Dec 28
Full
Jan 4
Last Quarter
Jan 11
New

Hourly Weather History & Observations

Time (MST) Temp. Windchill Dew Point Humidity Pressure Visibility Wind Dir Wind Speed Gust Speed Precip Events Conditions
12:56 AM 42.1 °F 37.1 °F 27.0 °F 55% 30.02 in 10.0 mi SW 8.1 mph - N/A   Clear
1:56 AM 42.1 °F 36.6 °F 28.0 °F 58% 30.01 in 10.0 mi SE 9.2 mph - N/A   Overcast
2:56 AM 43.0 °F 40.3 °F 28.9 °F 58% 30.01 in 10.0 mi SSE 4.6 mph - N/A   Overcast
3:56 AM 42.1 °F 37.7 °F 30.0 °F 62% 29.99 in 10.0 mi SE 6.9 mph - N/A   Overcast
4:56 AM 42.1 °F - 28.9 °F 60% 29.99 in 10.0 mi Calm Calm - N/A   Overcast
5:56 AM 42.1 °F 38.4 °F 28.9 °F 60% 30.00 in 10.0 mi SE 5.8 mph - N/A   Overcast
6:56 AM 42.1 °F 36.1 °F 30.0 °F 62% 30.00 in 10.0 mi South 10.4 mph - N/A   Mostly Cloudy
7:56 AM 42.1 °F 36.1 °F 30.9 °F 65% 30.01 in 10.0 mi South 10.4 mph 21.9 mph N/A   Clear
8:56 AM 44.1 °F 40.1 °F 33.1 °F 65% 30.03 in 10.0 mi South 6.9 mph - N/A   Scattered Clouds
9:56 AM 46.9 °F - 32.0 °F 56% 30.03 in 10.0 mi SSW 6.9 mph 20.7 mph N/A   Partly Cloudy
10:56 AM 46.9 °F - 33.1 °F 59% 30.02 in 10.0 mi WSW 10.4 mph 18.4 mph N/A   Scattered Clouds
11:56 AM 46.9 °F - 33.1 °F 59% 30.00 in 10.0 mi South 12.7 mph 21.9 mph N/A   Clear
12:56 PM 48.0 °F - 33.1 °F 56% 29.97 in 10.0 mi SSW 19.6 mph 24.2 mph N/A   Overcast
1:56 PM 48.9 °F - 34.0 °F 56% 29.95 in 10.0 mi SSW 19.6 mph 26.5 mph N/A   Overcast
2:56 PM 50.0 °F - 34.0 °F 54% 29.94 in 10.0 mi SW 12.7 mph 24.2 mph N/A   Overcast
3:56 PM 48.9 °F - 34.0 °F 56% 29.94 in 10.0 mi Variable 4.6 mph - N/A   Overcast
4:14 PM 48.2 °F - 35.6 °F 62% 29.97 in 10.0 mi Variable 3.5 mph - N/A   Overcast
4:28 PM 48.2 °F - 35.6 °F 62% 29.98 in 10.0 mi South 9.2 mph - N/A   Overcast
4:36 PM 46.4 °F 42.4 °F 35.6 °F 66% 29.98 in 10.0 mi South 8.1 mph - N/A   Overcast
4:56 PM 46.9 °F - 35.1 °F 63% 29.94 in 10.0 mi Calm Calm - 0.00 in   Overcast
5:37 PM 46.4 °F 45.2 °F 35.6 °F 66% 29.97 in 10.0 mi South 3.5 mph - N/A   Overcast
5:56 PM 46.9 °F - 35.1 °F 63% 29.94 in 10.0 mi SSW 8.1 mph 17.3 mph N/A   Overcast
6:56 PM 46.9 °F - 34.0 °F 61% 29.95 in 10.0 mi South 13.8 mph - 0.00 in   Mostly Cloudy
7:56 PM 46.9 °F - 35.1 °F 63% 29.97 in 10.0 mi SW 11.5 mph - N/A   Overcast
8:56 PM 46.0 °F 41.4 °F 36.0 °F 68% 29.98 in 10.0 mi SSW 9.2 mph - 0.00 in   Overcast
9:52 PM 44.6 °F 38.8 °F 35.6 °F 71% 30.02 in 10.0 mi West 11.5 mph - 0.00 in Rain Light Rain
9:56 PM 45.0 °F 38.9 °F 36.0 °F 71% 29.98 in 10.0 mi WSW 12.7 mph - 0.00 in Rain Light Rain
10:03 PM 44.6 °F 39.7 °F 35.6 °F 71% 30.02 in 10.0 mi WSW 9.2 mph 17.3 mph 0.00 in Rain Light Rain
10:35 PM 44.6 °F - 35.6 °F 71% 30.02 in 10.0 mi Calm Calm - 0.00 in   Scattered Clouds
10:56 PM 44.1 °F 40.1 °F 34.0 °F 68% 29.99 in 10.0 mi West 6.9 mph - 0.00 in   Mostly Cloudy
11:22 PM 44.6 °F 39.7 °F 35.6 °F 71% 30.03 in 10.0 mi SSW 9.2 mph - N/A   Overcast
11:36 PM 44.6 °F 40.2 °F 33.8 °F 66% 30.02 in 10.0 mi SSW 8.1 mph - N/A   Mostly Cloudy
11:56 PM 45.0 °F 39.3 °F 33.1 °F 63% 29.99 in 10.0 mi SSW 11.5 mph 19.6 mph N/A   Partly Cloudy